Погода в Сторожевой

Россия / Карачаево-Черкесская Республика     43°53′12″N   41°27′10″E
темп.,
°C
ветер,
м/с
пор.,
м/с
влажн.,
%
обл.,
%
осадки,
мм/ч
давл.,
гПа
погр.,
м
16 сентября, чт
чт1600:00+13ююз11900 0.0 101311
03:00+12зюз119283 0.0 101311
06:00+11зюз119699 1.6 101211
09:00+15ссз1191100 3.5 1012411
12:00+15с2292100 1.6 1013396
15:00+15с1292100 2.6 1014215
18:00+14ссв1194100 0.8 101412
21:00+12ссв2697100 6.1 1015342
17 сентября, пт
пт1700:00+10ссв1194100 0.1 101619
03:00+8ююв0090100 0.1 101610
06:00+9ююв2293100 1.3 101554
09:00+11вюв0194100 2.3 1014135
12:00+14св1185100 0.3 1014467
15:00+14юв128670 1.1 1014411
18:00+13в119097 0.3 101410
21:00+12юз119433 0.5 101513
18 сентября, сб
сб1800:00+11юз119541 0.1 101517
03:00+9юз229317 0.1 101616
06:00+9ююз229115 0.0 101621
09:00+15юз00739 0.0 1015317
12:00+19ссв226424 0.3 10141090
15:00+18ссв236767 1.4 1014940
18:00+16ссв1177100 0.6 101414
21:00+14зюз1184100 0.7 101514
19 сентября, вс
вс1900:00+11ююз229265 0.0 101519
03:00+11ююз2286100 0.0 101533
06:00+10ююз228499 0.0 101520
09:00+16сз1168100 0.0 1015242
12:00+19с2258100 0.0 1014927
15:00+19ссв226297 0.0 10141004
18:00+15св118333 0.8 101512
21:00+13ю118965 1.1 101511
20 сентября, пн
пн2000:00+11ю228637 0.0 101529
03:00+11ю327776 0.0 101432
06:00+11ююз2278100 0.0 101417
09:00+17зюз116196 0.0 1013184
12:00+21с32465 0.0 10121155
15:00+21с325184 0.1 10121454
18:00+15ссз118274 3.7 101312
21:00+12юз11915 4.9 101410